Dewpoint
44 44 42 41 42 39 35 33 34 33 29 29 27 29 27 28 31 30 29 32 34 31 30 27 27 28 30 30 31 31 32 32 32 32 33 33 34 35
44 42 42 42 41 37 35 34 34 33 30 27 26 28 29 22 29 28 28 33 32 32 33 29 25 27 28 29 29 30 30 31 31 31 31 32 33 33
43 42 41 42 38 38 37 35 34 33 29 29 28 30 30 30 27 28 28 27 26 31 32 29 28 26 26 27 27 28 29 29 29 30 30 31 32 34
42 41 42 40 40 39 37 37 35 34 31 31 30 29 29 29 30 29 23 19 22 25 30 30 28 27 26 25 27 28 28 28 29 29 29 30 31 31
41 41 42 40 40 39 37 36 35 31 34 33 31 29 28 27 26 28 26 26 18 26 30 29 29 28 26 27 27 28 28 28 28 28 29 30 31 31
42 42 41 40 39 38 37 37 35 35 34 32 30 29 28 27 26 23 23 24 19 11 20 25 28 27 29 29 30 28 29 28 27 28 29 31 31 31
42 41 41 40 38 37 33 37 36 34 34 33 29 28 26 24 24 23 23 20 21 20 19 19 20 20 22 26 26 31 28 26 27 27 29 30 30 31
40 40 39 35 35 35 35 36 35 36 35 33 30 30 28 26 28 26 22 20 17 20 20 21 20 19 20 23 28 26 26 26 27 28 30 30 30 32
34 33 31 27 31 29 33 35 35 34 31 32 31 31 30 29 30 27 22 22 19 18 21 20 24 23 20 16 28 29 29 29 27 29 29 29 31 32
32 31 32 32 33 32 32 33 33 34 33 29 29 29 30 31 31 24 24 21 20 21 22 22 23 22 24 23 26 29 29 29 28 29 29 30 30 31
30 30 30 31 32 33 32 33 32 32 30 33 33 33 28 24 23 25 24 22 25 18 22 22 21 21 22 23 25 25 28 29 29 30 30 30 31 31
32 31 31 31 31 31 33 33 31 30 30 29 31 31 29 28 27 24 24 24 23 22 21 22 18 18 19 22 22 26 27 28 29 30 30 31 31 31
30 31 33 32 33 33 33 34 33 32 31 31 30 30 33 29 27 27 25 23 24 20 21 21 20 18 19 19 21 25 26 28 29 30 30 31 32 31
24 28 29 29 29 28 30 32 34 33 35 34 32 32 33 33 30 27 26 25 24 23 23 21 25 20 19 19 17 22 25 28 29 30 32 32 32 32
25 26 26 26 27 29 30 31 32 33 33 32 32 32 31 30 30 31 29 26 25 25 18 22 25 21 21 21 19 21 22 25 30 31 33 33 32 34
23 25 24 26 26 26 27 29 31 31 32 32 33 33 32 32 33 31 29 27 26 25 24 27 26 23 22 19 21 22 24 25 29 31 31 33 34 35
24 25 27 28 28 28 28 27 28 30 31 33 33 34 31 32 33 31 29 27 26 24 23 24 25 25 24 22 23 22 25 27 28 31 30 31 33 35
21 23 24 26 25 24 26 26 29 29 31 33 33 32 31 31 31 31 29 28 24 23 23 21 22 20 21 23 26 25 25 25 26 27 29 29 29 35
19 18 22 23 22 21 22 24 23 26 33 33 33 32 32 30 31 30 29 28 25 23 21 22 21 19 17 17 22 24 25 24 25 27 28 28 28 32
15 15 17 19 19 19 20 21 23 21 33 32 33 32 33 31 31 30 29 29 25 22 21 18 18 17 19 20 21 25 27 27 26 25 25 27 29 31
13 13 15 16 18 19 20 21 20 20 31 32 32 31 32 30 30 30 30 28 27 21 19 17 17 21 18 19 21 24 30 30 28 26 24 25 24 26
14 12 13 15 17 18 19 20 18 20 22 32 32 32 32 32 30 30 29 28 25 24 19 18 18 16 17 16 17 22 22 29 28 28 27 25 24 22
14 13 14 16 16 17 16 17 16 17 21 22 29 32 32 30 31 31 29 28 28 22 19 18 17 16 15 14 16 17 21 23 23 22 28 27 26 26
Lifted_Index
7 7 7 8 9 9 10 10 10 9 9 9 10 10 11 11 11 11 11 11 11 11 10 10 10 10 9 9 8 8 8 8 8 8 7 7 7 8
7 7 8 8 9 9 10 10 10 9 10 10 10 10 10 10 10 10 10 10 10 9 9 9 10 10 9 9 9 8 8 8 8 8 7 7 7 7
8 8 8 9 9 9 9 9 9 10 10 10 10 9 9 9 9 9 9 9 8 8 8 9 9 9 9 9 9 8 8 8 8 8 8 8 7 7
8 8 8 9 9 9 9 9 9 9 10 9 9 9 8 8 8 8 8 7 7 7 8 8 9 9 9 9 8 8 8 8 8 8 8 8 8 8
8 8 9 9 9 9 9 9 9 9 9 9 8 8 8 7 7 6 6 6 6 7 7 8 8 8 8 8 8 8 8 8 8 9 8 8 8 8
8 8 9 9 9 9 9 8 8 8 8 8 8 7 7 6 5 5 5 5 6 7 7 7 7 7 7 7 7 7 7 8 8 8 8 8 8 8
9 9 9 9 9 9 9 8 8 8 7 7 6 6 5 4 4 4 5 5 6 7 7 6 6 6 6 6 6 7 7 8 8 8 8 8 8 8
9 9 9 10 10 10 9 9 9 8 7 6 5 4 4 3 4 4 5 5 6 6 6 6 6 6 6 6 6 7 7 8 8 8 8 8 8 8
10 10 10 10 10 10 9 9 9 8 6 5 5 4 3 3 4 4 5 6 6 6 6 6 5 5 6 6 6 7 7 8 8 8 8 8 9 9
11 11 11 10 10 10 9 8 8 7 6 5 5 4 4 4 4 5 5 6 6 6 6 5 5 5 5 6 6 7 7 7 8 8 8 8 9 9
12 12 11 11 10 10 9 8 7 6 5 4 4 4 4 4 5 5 6 6 6 6 5 5 5 6 6 6 6 7 7 8 8 8 8 8 8 8
13 13 12 11 11 10 9 8 7 6 5 4 4 4 4 5 5 5 6 6 6 6 5 5 6 6 6 6 6 7 7 7 7 7 7 7 8 7
15 15 14 13 12 11 9 8 6 6 5 4 4 4 4 4 5 5 6 6 6 5 5 6 6 6 6 7 7 7 7 7 7 7 7 7 7 7
17 17 16 15 14 12 10 8 7 6 6 5 4 3 3 3 4 4 5 5 5 5 5 6 6 6 7 7 7 7 7 7 6 6 6 6 6 5
18 18 17 16 14 12 10 9 8 7 6 5 4 3 3 3 3 4 4 5 5 5 5 6 6 7 7 7 7 7 7 7 6 5 5 5 4 4
19 18 17 15 13 12 10 9 8 8 7 5 4 3 3 3 3 3 4 4 4 5 5 5 6 6 7 7 7 7 7 6 6 5 4 4 3 3
19 17 16 14 12 11 10 9 8 7 6 5 4 3 3 2 3 3 4 4 4 5 5 5 5 6 6 6 6 6 6 6 6 5 4 3 3 3
17 16 15 13 12 11 10 9 8 6 5 4 4 3 2 2 2 3 4 4 4 4 5 5 5 6 6 6 6 6 6 6 6 5 4 4 4 3
16 15 14 13 12 12 11 9 8 6 5 4 3 3 2 2 2 3 3 4 4 4 5 5 5 6 6 5 5 6 6 6 6 5 5 4 4 4
15 15 14 13 13 12 11 9 8 6 4 3 3 3 2 2 2 3 3 3 4 4 5 5 5 5 6 6 6 6 6 6 6 5 5 5 4 4
15 14 14 14 13 12 11 9 7 5 3 3 3 3 2 2 2 3 3 3 4 4 5 5 5 6 6 6 6 6 5 5 6 5 5 5 5 5
15 15 15 14 14 13 11 9 7 5 4 3 3 2 2 2 3 3 3 3 4 4 5 5 5 6 6 6 6 5 5 5 6 6 6 6 6 5
16 16 15 15 14 13 11 9 8 6 4 3 3 2 2 2 3 3 3 3 4 5 5 5 5 6 6 6 6 6 6 6 6 6 6 6 6 6